• In Deutschland
  • Länderverzeichnis
  • Für 7 Tage
  • Wassertemperatur
  • Satellitenkarten
  • Wetterkarte
  • Widgets
  • user-avatar
    Anmelden

    Stündliche Wetter Eibau

    Heute, 17 Oktober, Dienstag

    Zeit Temperatur Niederschläge Wind Luftdruck Luftfeuchtigkeit
    00:00 +14°C° 0 mm 2 m/S 733 mmHg 77%
    01:00 +14°C° 0 mm 2 m/S 733 mmHg 77%
    02:00 +14°C° 0 mm 2 m/S 733 mmHg 78%
    03:00 +13°C° 0 mm 2 m/S 733 mmHg 78%
    04:00 +13°C° 0 mm 2 m/S 733 mmHg 79%
    05:00 +13°C° 0 mm 2 m/S 733 mmHg 79%
    06:00 +13°C° 0 mm 2 m/S 733 mmHg 80%
    07:00 +13°C° 0 mm 2 m/S 733 mmHg 80%
    08:00 +15°C° 0 mm 2 m/S 733 mmHg 74%
    09:00 +17°C° 0 mm 2 m/S 733 mmHg 68%
    10:00 +19°C° 0 mm 2 m/S 734 mmHg 62%
    11:00 +20°C° 0 mm 2 m/S 733 mmHg 59%
    12:00 +21°C° 0 mm 2 m/S 733 mmHg 56%
    13:00 +23°C° 0 mm 2 m/S 733 mmHg 52%
    14:00 +21°C° 0 mm 2 m/S 732 mmHg 56%
    15:00 +20°C° 0 mm 2 m/S 732 mmHg 60%
    16:00 +20°C° 0 mm 2 m/S 731 mmHg 63%
    17:00 +18°C° 0 mm 2 m/S 731 mmHg 67%
    18:00 +17°C° 0 mm 2 m/S 731 mmHg 70%
    19:00 +15°C° 0 mm 2 m/S 731 mmHg 74%
    20:00 +15°C° 0 mm 2 m/S 730 mmHg 75%
    21:00 +14°C° 0 mm 2 m/S 730 mmHg 76%
    22:00 +14°C° 0 mm 2 m/S 730 mmHg 77%
    23:00 +13°C° 0 mm 2 m/S 730 mmHg 79%

    Morgen, 18 Oktober, Mittwoch

    Zeit Temperatur Niederschläge Wind Luftdruck Luftfeuchtigkeit
    00:00 +13°C° 0 mm 2 m/S 730 mmHg 81%
    01:00 +13°C° 0 mm 2 m/S 730 mmHg 83%
    02:00 +12°C° 0 mm 2 m/S 729 mmHg 84%
    03:00 +12°C° 0 mm 2 m/S 729 mmHg 85%
    04:00 +12°C° 0 mm 1 m/S 729 mmHg 86%
    05:00 +11°C° 0 mm 1 m/S 729 mmHg 86%
    06:00 +11°C° 0 mm 1 m/S 728 mmHg 86%
    07:00 +11°C° 0 mm 1 m/S 728 mmHg 86%
    08:00 +13°C° 0 mm 1 m/S 728 mmHg 80%
    09:00 +15°C° 0 mm 1 m/S 729 mmHg 74%
    10:00 +16°C° 0 mm 1 m/S 729 mmHg 67%
    11:00 +18°C° 0 mm 1 m/S 728 mmHg 64%
    12:00 +19°C° 0 mm 1 m/S 728 mmHg 60%
    13:00 +20°C° 0 mm 1 m/S 728 mmHg 57%
    14:00 +20°C° 0 mm 1 m/S 727 mmHg 60%
    15:00 +19°C° 0 mm 1 m/S 727 mmHg 64%
    16:00 +19°C° 0 mm 1 m/S 727 mmHg 67%
    17:00 +16°C° 0 mm 1 m/S 727 mmHg 72%
    18:00 +15°C° 0 mm 1 m/S 727 mmHg 76%
    19:00 +14°C° 0 mm 1 m/S 727 mmHg 81%
    20:00 +13°C° 0 mm 1 m/S 727 mmHg 82%
    21:00 +13°C° 0 mm 1 m/S 727 mmHg 83%
    22:00 +12°C° 0 mm 1 m/S 727 mmHg 85%
    23:00 +12°C° 0 mm 1 m/S 726 mmHg 85%

    übermorgen, 19 Oktober, Donnerstag

    Zeit Temperatur Niederschläge Wind Luftdruck Luftfeuchtigkeit
    00:00 +12°C° 0 mm 1 m/S 726 mmHg 86%
    01:00 +11°C° 0 mm 1 m/S 726 mmHg 87%
    02:00 +11°C° 0 mm 1 m/S 726 mmHg 87%
    03:00 +11°C° 0 mm 1 m/S 726 mmHg 87%
    04:00 +11°C° 0 mm 1 m/S 726 mmHg 88%
    05:00 +10°C° 0 mm 1 m/S 726 mmHg 87%
    06:00 +10°C° 0 mm 1 m/S 726 mmHg 87%
    07:00 +10°C° 0 mm 1 m/S 726 mmHg 86%
    08:00 +12°C° 0 mm 2 m/S 727 mmHg 79%
    09:00 +14°C° 0 mm 2 m/S 727 mmHg 72%
    10:00 +16°C° 0 mm 2 m/S 727 mmHg 64%
    11:00 +17°C° 0 mm 2 m/S 727 mmHg 60%
    12:00 +18°C° 0 mm 2 m/S 727 mmHg 56%
    13:00 +19°C° 0 mm 2 m/S 727 mmHg 52%
    14:00 +19°C° 0 mm 2 m/S 727 mmHg 56%
    15:00 +18°C° 0 mm 2 m/S 727 mmHg 59%
    16:00 +19°C° 0 mm 1 m/S 726 mmHg 62%
    17:00 +16°C° 0 mm 2 m/S 727 mmHg 66%
    18:00 +15°C° 0 mm 2 m/S 727 mmHg 70%
    19:00 +13°C° 0 mm 2 m/S 727 mmHg 74%
    20:00 +13°C° 0 mm 2 m/S 727 mmHg 74%
    21:00 +13°C° 0 mm 2 m/S 727 mmHg 74%
    22:00 +13°C° 0 mm 2 m/S 727 mmHg 73%
    23:00 +12°C° 0 mm 2 m/S 727 mmHg 74%

    20 Oktober, Freitag

    Zeit Temperatur Niederschläge Wind Luftdruck Luftfeuchtigkeit
    00:00 +12°C° 0 mm 2 m/S 727 mmHg 75%
    01:00 +12°C° 0 mm 2 m/S 727 mmHg 76%
    02:00 +12°C° 0 mm 2 m/S 727 mmHg 76%
    03:00 +10°C° 0 mm 2 m/S 727 mmHg 77%
    04:00 +10°C° 0 mm 3 m/S 727 mmHg 78%
    05:00 +10°C° 0 mm 3 m/S 727 mmHg 77%
    06:00 +10°C° 0 mm 3 m/S 727 mmHg 76%
    07:00 +10°C° 0 mm 3 m/S 727 mmHg 75%
    08:00 +11°C° 0 mm 4 m/S 727 mmHg 72%
    09:00 +13°C° 0 mm 4 m/S 727 mmHg 69%
    10:00 +14°C° 0 mm 4 m/S 727 mmHg 66%
    11:00 +15°C° 0 mm 4 m/S 727 mmHg 63%
    12:00 +16°C° 0 mm 5 m/S 727 mmHg 60%
    13:00 +17°C° 0 mm 5 m/S 727 mmHg 57%
    14:00 +17°C° 0 mm 5 m/S 727 mmHg 59%
    15:00 +18°C° 0 mm 4 m/S 727 mmHg 61%
    16:00 +18°C° 0 mm 4 m/S 727 mmHg 63%
    17:00 +17°C° 0 mm 4 m/S 727 mmHg 67%
    18:00 +15°C° 0 mm 4 m/S 727 mmHg 71%
    19:00 +14°C° 0 mm 3 m/S 727 mmHg 74%
    20:00 +14°C° 0 mm 3 m/S 728 mmHg 76%
    21:00 +13°C° 0 mm 3 m/S 728 mmHg 78%
    22:00 +13°C° 0 mm 3 m/S 728 mmHg 80%
    23:00 +12°C° 0 mm 3 m/S 728 mmHg 81%

    21 Oktober, Samstag

    Zeit Temperatur Niederschläge Wind Luftdruck Luftfeuchtigkeit
    00:00 +13°C° 0 mm 2 m/S 728 mmHg 83%
    01:00 +13°C° 0 mm 2 m/S 728 mmHg 85%
    02:00 +13°C° 0 mm 2 m/S 728 mmHg 84%
    03:00 +13°C° 0 mm 2 m/S 727 mmHg 83%
    04:00 +13°C° 0 mm 2 m/S 727 mmHg 82%
    05:00 +13°C° 0 mm 2 m/S 727 mmHg 82%
    06:00 +13°C° 0 mm 2 m/S 727 mmHg 83%
    07:00 +12°C° 0 mm 3 m/S 727 mmHg 84%
    08:00 +13°C° 0 mm 3 m/S 727 mmHg 78%
    09:00 +16°C° 0 mm 3 m/S 727 mmHg 72%
    10:00 +17°C° 0 mm 4 m/S 727 mmHg 66%
    11:00 +18°C° 0 mm 4 m/S 727 mmHg 63%
    12:00 +19°C° 0 mm 4 m/S 727 mmHg 59%
    13:00 +20°C° 0 mm 4 m/S 726 mmHg 56%
    14:00 +20°C° 0 mm 4 m/S 726 mmHg 59%
    15:00 +19°C° 0 mm 3 m/S 726 mmHg 61%
    16:00 +19°C° 0 mm 3 m/S 726 mmHg 64%
    17:00 +18°C° 0,1 mm 3 m/S 726 mmHg 67%
    18:00 +17°C° 0,1 mm 3 m/S 726 mmHg 70%
    19:00 +16°C° 0,1 mm 3 m/S 726 mmHg 74%
    20:00 +14°C° 0,3 mm 3 m/S 726 mmHg 78%
    21:00 +14°C° 0,3 mm 3 m/S 726 mmHg 81%
    22:00 +14°C° 0,3 mm 3 m/S 726 mmHg 85%
    23:00 +13°C° 0,2 mm 3 m/S 726 mmHg 86%

    22 Oktober, Sonntag

    Zeit Temperatur Niederschläge Wind Luftdruck Luftfeuchtigkeit
    00:00 +14°C° 0,2 mm 2 m/S 726 mmHg 88%
    01:00 +14°C° 0,2 mm 2 m/S 726 mmHg 89%
    02:00 +13°C° 0,3 mm 2 m/S 726 mmHg 89%
    03:00 +13°C° 0,3 mm 2 m/S 726 mmHg 89%
    04:00 +13°C° 0,3 mm 2 m/S 726 mmHg 89%
    05:00 +12°C° 0,4 mm 2 m/S 726 mmHg 89%
    06:00 +11°C° 0,4 mm 3 m/S 726 mmHg 88%
    07:00 +11°C° 0,4 mm 3 m/S 726 mmHg 87%
    08:00 +11°C° 0,3 mm 3 m/S 726 mmHg 85%
    09:00 +11°C° 0,3 mm 3 m/S 727 mmHg 83%
    10:00 +11°C° 0,3 mm 3 m/S 727 mmHg 82%
    11:00 +11°C° 0,2 mm 4 m/S 727 mmHg 79%
    12:00 +11°C° 0,2 mm 4 m/S 726 mmHg 76%
    13:00 +11°C° 0,2 mm 4 m/S 726 mmHg 73%
    14:00 +11°C° 0,1 mm 4 m/S 726 mmHg 72%
    15:00 +11°C° 0,1 mm 4 m/S 726 mmHg 70%
    16:00 +11°C° 0,1 mm 3 m/S 726 mmHg 69%
    17:00 +10°C° 0 mm 3 m/S 726 mmHg 72%
    18:00 +9°C° 0 mm 3 m/S 727 mmHg 75%
    19:00 +7°C° 0 mm 3 m/S 727 mmHg 78%
    20:00 +7°C° 0 mm 3 m/S 727 mmHg 79%
    21:00 +7°C° 0 mm 3 m/S 727 mmHg 79%
    22:00 +5°C° 0 mm 3 m/S 727 mmHg 79%
    23:00 +5°C° 0 mm 3 m/S 727 mmHg 80%
    Mehr zeigen